sat.trackr.live / text

‹ back to catalog

STARLINK-3131

NORAD 49427 · 2021-104V

PAYLOAD ACTIVE UNKNOWN

§ Identity

Operator
Country
US
Launch date
2021-11-13
Launch site
AFETR
Launch vehicle
Mass (kg)
RCS (m²)

Purposes: comms

External: N2YO · Heavens-Above · Gunter

§ Orbital elements

Epoch: 2026-05-24T23:32:35.992032Z

Period
95.44 min
Inclination
53.2126°
Eccentricity
0.0001894
Mean motion
15.08814587 rev/d
Perigee alt
538.5 km
Apogee alt
541.1 km
Semi-major
6,918.0 km
B*
3.4257e-4
RAAN
246.6445°
Arg perigee
85.2369°
Mean anomaly
274.8840°
Rev number
25,015

§ Raw data

STARLINK-31311 49427U 21104V   26144.98097213  .00005164  00000+0  34257-3 0  99992 49427  53.2126 246.6445 0001894  85.2369 274.8840 15.08814587250156

JSON: /api/v1/satellites/49427 · /tle

For live sub-satellite position, see the globe view (requires WebGL).

§ Visibility from observer

Set your observer location to see the next 7 days of passes ≥ 10°. The values pass through the URL so the page stays shareable.

No JS? Fill the form by hand. The geolocation button needs JavaScript.